Погода в Высокогорске

Россия / Приморский край     44°24′20″N   135°23′47″E
темп.,
°C
ветер,
м/с
пор.,
м/с
влажн.,
%
обл.,
%
осадки,
мм/ч
давл.,
гПа
погр.,
м
26 сентября, вс
вс2601:00+9зсз1172100 0.0 102613
04:00+9сз1166100 0.0 102511
07:00+10сз1166100 0.0 102511
10:00+14ссв1161100 0.0 1024180
13:00+15ссз1171100 0.0 1023178
16:00+16юв016491 0.0 1022531
19:00+12ююз019119 0.0 102210
22:00+10сз11930 0.0 102311
27 сентября, пн
пн2701:00+9зсз11930 0.0 102212
04:00+9сз21930 0.0 102114
07:00+8зсз11945 0.0 102111
10:00+16юв11688 0.0 1020443
13:00+18ююв2363100 0.0 10181131
16:00+17ююв2376100 0.1 1017533
19:00+12юв1196100 0.0 101811
22:00+10з0096100 0.0 101910
28 сентября, вт
вт2801:00+10зсз1195100 0.0 101811
04:00+10з1194100 0.0 101811
07:00+10зсз1195100 0.0 101811
10:00+16ю017477 0.1 1017339
13:00+20ююз136044 0.0 10161088
16:00+19ю236792 0.3 1015730
19:00+13вюв119397 0.1 101611
22:00+12в009694 0.1 101610
29 сентября, ср
ср2901:00+11зсз019899 0.0 101610
04:00+10ссз1199100 0.0 101511
07:00+12вюв1199100 0.0 101553
10:00+15вюв1390100 0.1 1014485
13:00+16ююв2490100 0.4 1013480
16:00+15юв2394100 0.9 1012312
19:00+14в11100100 0.4 101172
22:00+14св12100100 4.4 100980
30 сентября, чт
чт3001:00+13с24100100 12.4 1006161
04:00+13с2699100 24.4 1004316
07:00+13сз2597100 4.1 1003174
10:00+16сз39833 4.1 1004853
13:00+17сз487060 0.0 10061077
16:00+15сз47600 0.0 10071035
19:00+10зсз22750 0.0 101041
22:00+7сз22782 0.0 101245